Location: ??????????
(54.8537°N, 38.8755°E)
Time: 23:12:10
(UTC+00:00)

Tiros 1 - Pass Details

Date: 22 September 2024
Orbit: 623 x 654 km, 48.4° (Epoch: 09 October)

Event Time Altitude Azimuth Distance (km) Brightness Sun altitude
Rises 14:13:33 0° 266° (W) 2,901 12.6 9.0°
Reaches altitude 10° 14:16:02 10° 256° (WSW) 1,995 14.0 8.7°
Maximum altitude 14:20:06 32° 194° (SSW) 1,085 8.8 8.1°
Drops below altitude 10° 14:24:10 10° 132° (SE) 2,002 9.4 7.5°
Sets 14:26:40 0° 122° (ESE) 2,913 10.1 7.2°
